EN

Hourly Weather Malye Shidy

Today, 28 October, Wednesday

Time Temperature Precipitation Wind Pressure Humidity
00:00 -1°C° 0 mm 1 mps 764 mmHg 76%
01:00 -1°C° 0 mm 1 mps 764 mmHg 76%
02:00 -1°C° 0 mm 1 mps 764 mmHg 76%
03:00 -1°C° 0 mm 1 mps 765 mmHg 75%
04:00 -2°C° 0 mm 0 mps 765 mmHg 75%
05:00 -1°C° 0 mm 1 mps 765 mmHg 75%
06:00 -1°C° 0 mm 1 mps 765 mmHg 75%
07:00 -1°C° 0 mm 1 mps 765 mmHg 74%
08:00 -2°C° 0 mm 2 mps 765 mmHg 72%
09:00 -1°C° 0 mm 2 mps 765 mmHg 69%
10:00 +1°C° 0 mm 2 mps 765 mmHg 66%
11:00 0°C° 0 mm 3 mps 765 mmHg 64%
12:00 +1°C° 0 mm 3 mps 765 mmHg 62%
13:00 +2°C° 0 mm 3 mps 764 mmHg 61%
14:00 +1°C° 0 mm 3 mps 764 mmHg 63%
15:00 +1°C° 0 mm 3 mps 765 mmHg 66%
16:00 +1°C° 0 mm 3 mps 765 mmHg 68%
17:00 0°C° 0 mm 3 mps 765 mmHg 71%
18:00 -1°C° 0 mm 3 mps 765 mmHg 74%
19:00 -1°C° 0 mm 2 mps 765 mmHg 76%
20:00 -1°C° 0 mm 2 mps 765 mmHg 77%
21:00 -2°C° 0 mm 2 mps 765 mmHg 78%
22:00 -2°C° 0 mm 2 mps 765 mmHg 79%
23:00 -2°C° 0 mm 2 mps 765 mmHg 79%

Tomorrow, 29 October, Thursday

Time Temperature Precipitation Wind Pressure Humidity
00:00 -2°C° 0 mm 3 mps 765 mmHg 80%
01:00 -2°C° 0 mm 3 mps 764 mmHg 80%
02:00 -2°C° 0 mm 3 mps 764 mmHg 80%
03:00 -2°C° 0 mm 3 mps 765 mmHg 79%
04:00 -2°C° 0 mm 3 mps 765 mmHg 79%
05:00 -2°C° 0 mm 3 mps 765 mmHg 80%
06:00 -2°C° 0 mm 3 mps 765 mmHg 81%
07:00 -4°C° 0 mm 3 mps 765 mmHg 82%
08:00 -2°C° 0 mm 3 mps 765 mmHg 77%
09:00 -1°C° 0 mm 3 mps 765 mmHg 73%
10:00 -1°C° 0 mm 4 mps 765 mmHg 69%
11:00 0°C° 0 mm 4 mps 765 mmHg 67%
12:00 +1°C° 0 mm 4 mps 764 mmHg 65%
13:00 +3°C° 0 mm 4 mps 764 mmHg 62%
14:00 +1°C° 0 mm 4 mps 764 mmHg 66%
15:00 +2°C° 0 mm 3 mps 764 mmHg 70%
16:00 +1°C° 0 mm 3 mps 764 mmHg 74%
17:00 +2°C° 0 mm 2 mps 764 mmHg 77%
18:00 +1°C° 0 mm 2 mps 765 mmHg 80%
19:00 -1°C° 0 mm 2 mps 765 mmHg 83%
20:00 -1°C° 0 mm 2 mps 765 mmHg 85%
21:00 -1°C° 0 mm 2 mps 765 mmHg 86%
22:00 -1°C° 0 mm 2 mps 765 mmHg 87%
23:00 -1°C° 0 mm 2 mps 765 mmHg 87%

Day after tomorrow, 30 October, Friday

Time Temperature Precipitation Wind Pressure Humidity
00:00 -2°C° 0 mm 2 mps 765 mmHg 88%
01:00 -2°C° 0 mm 2 mps 765 mmHg 88%
02:00 -2°C° 0 mm 2 mps 765 mmHg 88%
03:00 -2°C° 0 mm 2 mps 764 mmHg 87%
04:00 -2°C° 0 mm 2 mps 764 mmHg 87%
05:00 -2°C° 0 mm 2 mps 764 mmHg 86%
06:00 -2°C° 0 mm 2 mps 764 mmHg 86%
07:00 -2°C° 0 mm 2 mps 764 mmHg 85%
08:00 -1°C° 0 mm 2 mps 764 mmHg 79%
09:00 +2°C° 0 mm 2 mps 764 mmHg 73%
10:00 +3°C° 0 mm 2 mps 764 mmHg 67%
11:00 +3°C° 0 mm 3 mps 763 mmHg 65%
12:00 +4°C° 0 mm 3 mps 763 mmHg 62%
13:00 +5°C° 0 mm 3 mps 763 mmHg 60%
14:00 +4°C° 0 mm 3 mps 763 mmHg 63%
15:00 +4°C° 0 mm 2 mps 763 mmHg 67%
16:00 +4°C° 0 mm 2 mps 763 mmHg 70%
17:00 +3°C° 0 mm 2 mps 762 mmHg 72%
18:00 +3°C° 0 mm 2 mps 762 mmHg 73%
19:00 +2°C° 0 mm 2 mps 762 mmHg 75%
20:00 +2°C° 0 mm 2 mps 762 mmHg 76%
21:00 +2°C° 0 mm 2 mps 762 mmHg 76%
22:00 +2°C° 0 mm 2 mps 762 mmHg 77%
23:00 +1°C° 0 mm 2 mps 762 mmHg 77%

31 October, Saturday

Time Temperature Precipitation Wind Pressure Humidity
00:00 +1°C° 0 mm 2 mps 761 mmHg 76%
01:00 +1°C° 0 mm 2 mps 761 mmHg 76%
02:00 +1°C° 0 mm 2 mps 761 mmHg 75%
03:00 +2°C° 0 mm 2 mps 761 mmHg 75%
04:00 +2°C° 0 mm 2 mps 761 mmHg 74%
05:00 +2°C° 0 mm 2 mps 761 mmHg 73%
06:00 +2°C° 0 mm 2 mps 761 mmHg 73%
07:00 +2°C° 0 mm 2 mps 760 mmHg 72%
08:00 +2°C° 0 mm 3 mps 760 mmHg 70%
09:00 +3°C° 0 mm 3 mps 760 mmHg 69%
10:00 +4°C° 0 mm 3 mps 760 mmHg 67%
11:00 +5°C° 0 mm 3 mps 759 mmHg 65%
12:00 +5°C° 0 mm 3 mps 759 mmHg 64%
13:00 +6°C° 0 mm 4 mps 759 mmHg 62%
14:00 +6°C° 0 mm 4 mps 759 mmHg 64%
15:00 +5°C° 0 mm 3 mps 759 mmHg 66%
16:00 +5°C° 0 mm 3 mps 758 mmHg 68%
17:00 +5°C° 0 mm 3 mps 758 mmHg 69%
18:00 +4°C° 0 mm 3 mps 758 mmHg 71%
19:00 +4°C° 0 mm 3 mps 758 mmHg 72%
20:00 +4°C° 0 mm 3 mps 758 mmHg 72%
21:00 +4°C° 0 mm 3 mps 758 mmHg 72%
22:00 +3°C° 0 mm 3 mps 757 mmHg 72%
23:00 +3°C° 0 mm 3 mps 757 mmHg 73%

1 November, Sunday

Time Temperature Precipitation Wind Pressure Humidity
00:00 +3°C° 0 mm 3 mps 757 mmHg 73%
01:00 +3°C° 0 mm 3 mps 757 mmHg 73%
02:00 +3°C° 0 mm 3 mps 757 mmHg 74%
03:00 +3°C° 0 mm 3 mps 757 mmHg 74%
04:00 +3°C° 0 mm 3 mps 757 mmHg 75%
05:00 +3°C° 0.1 mm 3 mps 757 mmHg 77%
06:00 +3°C° 0.1 mm 3 mps 757 mmHg 78%
07:00 +4°C° 0.1 mm 2 mps 757 mmHg 80%
08:00 +4°C° 0.5 mm 2 mps 757 mmHg 83%
09:00 +4°C° 0.5 mm 2 mps 757 mmHg 86%
10:00 +4°C° 0.5 mm 2 mps 757 mmHg 89%
11:00 +4°C° 0.2 mm 2 mps 758 mmHg 90%
12:00 +5°C° 0.2 mm 1 mps 758 mmHg 91%
13:00 +5°C° 0.2 mm 1 mps 759 mmHg 93%
14:00 +5°C° 0 mm 1 mps 759 mmHg 93%
15:00 +5°C° 0 mm 1 mps 759 mmHg 93%
16:00 +4°C° 0 mm 0 mps 760 mmHg 94%
17:00 +4°C° 0 mm 0 mps 760 mmHg 93%
18:00 +5°C° 0 mm 1 mps 761 mmHg 93%
19:00 +5°C° 0 mm 1 mps 761 mmHg 93%
20:00 +5°C° 0 mm 1 mps 761 mmHg 92%
21:00 +5°C° 0 mm 1 mps 762 mmHg 91%
22:00 +4°C° 0 mm 2 mps 762 mmHg 90%
23:00 +4°C° 0 mm 2 mps 762 mmHg 89%

2 November, Monday

Time Temperature Precipitation Wind Pressure Humidity
00:00 +4°C° 0 mm 2 mps 762 mmHg 88%
01:00 +4°C° 0 mm 2 mps 763 mmHg 87%
02:00 +3°C° 0 mm 2 mps 763 mmHg 87%
03:00 +4°C° 0 mm 1 mps 763 mmHg 87%
04:00 +4°C° 0 mm 1 mps 763 mmHg 86%
05:00 +4°C° 0 mm 1 mps 763 mmHg 87%
06:00 +4°C° 0 mm 1 mps 763 mmHg 87%
07:00 +3°C° 0 mm 2 mps 764 mmHg 87%
08:00 +3°C° 0 mm 2 mps 764 mmHg 85%
09:00 +3°C° 0 mm 2 mps 764 mmHg 83%
10:00 +3°C° 0 mm 2 mps 764 mmHg 81%
11:00 +4°C° 0 mm 2 mps 764 mmHg 78%
12:00 +5°C° 0 mm 2 mps 764 mmHg 76%
13:00 +5°C° 0 mm 2 mps 765 mmHg 73%
14:00 +5°C° 0 mm 2 mps 765 mmHg 76%
15:00 +4°C° 0 mm 2 mps 765 mmHg 78%
16:00 +4°C° 0 mm 2 mps 765 mmHg 81%
17:00 +3°C° 0 mm 2 mps 765 mmHg 83%
18:00 +2°C° 0 mm 2 mps 766 mmHg 85%
19:00 +1°C° 0 mm 2 mps 766 mmHg 88%
20:00 +1°C° 0 mm 2 mps 766 mmHg 87%
21:00 +2°C° 0 mm 1 mps 766 mmHg 86%
22:00 +1°C° 0 mm 1 mps 767 mmHg 86%
23:00 +1°C° 0 mm 1 mps 767 mmHg 85%
Show more

We Need Your Consent

Meteoprog and our Service Providers may store and access personal data such as cookies, device identifiers or other similar technologies on your device and process such data to personalise content and ads, as well as provide social media features and to analyse the traffic.

  • Store and/or access information on your device

    Cookies, device identifiers or other information can be stored or accessed on your device for the purposes indicated above.

  • Personalised ads and content, ad and content measurement, audience insights, and products development

    Ads and content can be personalised based on a profile. More data can be added to better personalise ads and content. Ad and content performance can be measured. Insights about the audience who saw the ads and content can be derived. Such data can be used to develop or improve user’s experience, systems and software.

By clicking ‘I Agree’ you will allow the use of indicated cookies, device identifiers, web beacons or other similar technologies. Your settings can be changed in the browser on your device.

For certain purposes, legitimate interests may be relied on, rather than consent. You can read more about this in our Privacy and Cookie Policy.